EW7168 Weather Reports


time (UTC)temp
C
wind
direction
speed
KPH
gust
KPH
rain 1hr
cm
rain 24hr
cm
rain mn
cm
humidity
%
barometer
mb
20260906221606 32 140 8.0 22.5 0.00 0.00 0.00 33 1014.0
20260906220105 32 67 3.2 19.3 0.00 0.00 0.00 32 1013.8
20260906214559 32 105 0.0 17.7 0.00 0.00 0.00 33 1014.1
20260906213107 31 0 0.0 0.0 0.00 0.00 0.00 32 1014.3
20260906211602 31 0 0.0 0.0 0.00 0.00 0.00 33 1014.6
20260906210105 31 0 0.0 9.7 0.00 0.00 0.00 33 1014.9
20260906204606 31 0 0.0 0.0 0.00 0.00 0.00 34 1015.3
20260906203102 30 0 0.0 14.5 0.00 0.00 0.00 36 1015.4
20260906201609 30 110 3.2 16.1 0.00 0.00 0.00 37 1015.6
20260906200100 30 246 4.8 20.9 0.00 0.00 0.00 37 1015.8
20260906194603 29 30 4.8 12.9 0.00 0.00 0.00 38 1016.1
20260906193103 28 101 4.8 16.1 0.00 0.00 0.00 40 1016.3
20260906191602 28 266 3.2 17.7 0.00 0.00 0.00 39 1016.4
20260906184604 28 0 1.6 12.9 0.00 0.00 0.00 42 1017.1
20260906183104 27 352 4.8 12.9 0.00 0.00 0.00 43 1017.4
20260906181607 27 350 1.6 6.4 0.00 0.00 0.00 43 1017.7
20260906180109 27 350 4.8 12.9 0.00 0.00 0.00 44 1017.9
20260906174600 26 118 0.0 12.9 0.00 0.00 0.00 47 1018.2
20260906173108 25 285 3.2 9.7 0.00 0.00 0.00 48 1018.4
20260906171607 25 42 0.0 3.2 0.00 0.00 0.00 51 1019.0
20260906170109 24 54 0.0 6.4 0.00 0.00 0.00 52 1019.1
20260906164604 24 0 1.6 6.4 0.00 0.00 0.00 53 1019.3
20260906163108 23 226 1.6 8.0 0.00 0.00 0.00 57 1019.3
20260906161559 23 92 3.2 6.4 0.00 0.00 0.00 59 1019.2
20260906160104 22 266 0.0 8.0 0.00 0.00 0.00 60 1019.3
20260906154604 22 52 3.2 8.0 0.00 0.00 0.00 61 1019.3
20260906153103 22 0 3.2 9.7 0.00 0.00 0.00 60 1019.3
20260906151601 22 0 0.0 4.8 0.00 0.00 0.00 60 1019.4
20260906150106 21 0 0.0 0.0 0.00 0.00 0.00 64 1019.4
20260906144602 20 219 1.6 4.8 0.00 0.00 0.00 65 1019.4
20260906143107 20 0 0.0 4.8 0.00 0.00 0.00 68 1019.5
20260906141600 19 246 0.0 3.2 0.00 0.00 0.00 69 1019.5
20260906140059 18 0 0.0 3.2 0.00 0.00 0.00 71 1019.4
20260906134553 17 0 0.0 0.0 0.00 0.00 0.00 75 1019.5
20260906133105 16 0 0.0 0.0 0.00 0.00 0.00 79 1019.5
20260906131600 16 0 0.0 0.0 0.00 0.00 0.00 82 1019.3
20260906130100 15 0 0.0 0.0 0.00 0.00 0.00 81 1018.9
20260906124553 15 0 0.0 0.0 0.00 0.00 0.00 80 1018.8
20260906123103 16 0 0.0 0.0 0.00 0.00 0.00 79 1018.8
20260906121604 16 0 0.0 0.0 0.00 0.00 0.00 77 1018.8
20260906120114 16 0 0.0 0.0 0.00 0.00 0.00 74 1018.8
20260906114553 17 0 0.0 0.0 0.00 0.00 0.00 73 1018.9
20260906113102 17 0 0.0 0.0 0.00 0.00 0.00 71 1018.9
20260906111617 17 0 0.0 4.8 0.00 0.00 0.00 70 1018.7
20260906110059 17 0 0.0 6.4 0.00 0.00 0.00 68 1018.6
20260906104604 17 0 0.0 0.0 0.00 0.00 0.00 67 1018.4
20260906103059 17 0 0.0 0.0 0.00 0.00 0.00 67 1018.4
20260906101604 17 0 0.0 0.0 0.00 0.00 0.00 67 1018.2
20260906100059 17 0 0.0 0.0 0.00 0.00 0.00 67 1018.3
20260906094604 17 0 0.0 0.0 0.00 0.00 0.00 67 1018.3
20260906093105 17 0 0.0 0.0 0.00 0.00 0.00 66 1018.3
20260906091615 17 0 0.0 0.0 0.00 0.00 0.00 66 1018.3
20260906090112 18 0 0.0 0.0 0.00 0.00 0.00 64 1018.0
20260906084625 18 0 0.0 0.0 0.00 0.00 0.00 61 1017.8
20260906083102 19 0 0.0 0.0 0.00 0.00 0.00 59 1017.7
20260906081603 19 0 0.0 0.0 0.00 0.00 0.00 58 1018.0
20260906080110 19 0 0.0 0.0 0.00 0.00 0.00 57 1017.8
20260906074601 19 0 0.0 0.0 0.00 0.00 0.00 56 1017.8
20260906073059 20 0 0.0 0.0 0.00 0.00 0.00 56 1017.7
20260906071604 20 0 0.0 0.0 0.00 0.00 0.00 55 1017.6
20260906064558 21 0 0.0 0.0 0.00 0.00 0.00 52 1017.4
20260906063058 21 0 0.0 0.0 0.00 0.00 0.00 50 1017.9
20260906061605 22 0 0.0 6.4 0.00 0.00 0.00 49 1018.1
20260906054559 23 218 1.6 6.4 0.00 0.00 0.00 45 1018.3
20260906053100 23 233 4.8 12.9 0.00 0.00 0.00 43 1018.3
20260906051607 24 0 1.6 16.1 0.00 0.00 0.00 41 1018.2
20260906050057 24 228 3.2 11.3 0.00 0.00 0.00 39 1018.4
20260906044605 23 0 0.0 11.3 0.00 0.00 0.00 40 1018.6
20260906043100 23 235 0.0 4.8 0.00 0.00 0.00 43 1018.6
20260906041605 22 172 0.0 3.2 0.00 0.00 0.00 46 1018.5
20260906040113 21 0 0.0 0.0 0.00 0.00 0.00 47 1017.7
20260906034557 22 0 0.0 0.0 0.00 0.00 0.00 46 1017.3
20260906033106 23 0 0.0 0.0 0.00 0.00 0.00 42 1017.2
20260906031601 23 0 0.0 0.0 0.00 0.00 0.00 41 1017.1
20260906030108 24 0 0.0 0.0 0.00 0.00 0.00 39 1016.9
20260906024625 24 0 0.0 0.0 0.00 0.00 0.00 38 1016.5
20260906023104 25 0 0.0 0.0 0.00 0.00 0.00 37 1016.4
20260906021559 26 0 0.0 0.0 0.00 0.00 0.00 34 1016.2
20260906020110 27 0 0.0 6.4 0.00 0.00 0.00 31 1016.1
20260906014612 28 0 0.0 3.2 0.00 0.00 0.00 30 1015.9
20260906013103 28 0 0.0 11.3 0.00 0.00 0.00 28 1015.7
20260906011603 29 0 0.0 1.6 0.00 0.00 0.00 27 1015.6
20260906010119 30 345 0.0 1.6 0.00 0.00 0.00 26 1015.5
20260906004607 31 0 0.0 0.0 0.00 0.00 0.00 25 1015.5
20260906003118 32 0 0.0 0.0 0.00 0.00 0.00 24 1015.4
20260906001558 32 0 1.6 6.4 0.00 0.00 0.00 22 1015.5
20260906000103 33 66 1.6 4.8 0.00 0.00 0.00 21 1015.4
20260905234603 33 0 0.0 6.4 0.00 0.00 0.00 20 1015.2
20260905233102 33 39 1.6 8.0 0.00 0.00 0.00 21 1015.3
20260905231559 32 43 1.6 11.3 0.00 0.00 0.00 23 1015.3
20260905230108 32 27 3.2 8.0 0.00 0.00 0.00 22 1015.4
20260905224602 33 360 1.6 11.3 0.00 0.00 0.00 21 1015.3
20260905223100 32 0 0.0 12.9 0.00 0.00 0.00 22 1015.3